KB6LA Weather Reports


Display with metric or nautical units.
time (UTC)temp
F
wind
direction
speed
MPH
gust
MPH
rain 1hr
in
rain 24hr
in
rain mn
in
humidity
%
barometer
mb
20260502231110 63 244 8.0 14.0 0.00 0.00 0.00 79 1009.7
20260502230602 63 246 4.0 15.0 0.00 0.00 0.00 80 1010.1
20260502230055 62 262 5.0 18.0 0.00 0.00 0.00 83 1010.1
20260502225548 62 214 14.0 18.0 0.00 0.00 0.00 81 1010.4
20260502225041 62 221 11.0 14.0 0.00 0.00 0.00 81 1010.4
20260502224026 62 232 11.0 16.0 0.00 0.00 0.00 81 1010.7
20260502223519 62 258 5.0 16.0 0.00 0.00 0.00 82 1010.7
20260502222504 62 249 8.0 15.0 0.00 0.00 0.00 82 1011.1
20260502221956 62 225 10.0 14.0 0.00 0.00 0.00 81 1011.4
20260502221449 62 227 6.0 14.0 0.00 0.00 0.00 81 1011.1
20260502220942 62 278 10.0 14.0 0.00 0.00 0.00 81 1011.4
20260502220435 62 247 11.0 14.0 0.00 0.00 0.00 81 1011.4
20260502215421 62 229 13.0 15.0 0.00 0.00 0.00 80 1011.8
20260502214913 63 218 6.0 14.0 0.00 0.00 0.00 81 1011.8
20260502214406 62 222 7.0 15.0 0.00 0.00 0.00 81 1011.8
20260502213858 62 214 10.0 15.0 0.00 0.00 0.00 81 1011.8
20260502213351 63 227 11.0 15.0 0.00 0.00 0.00 80 1012.1
20260502212843 62 218 11.0 14.0 0.00 0.00 0.00 81 1012.1
20260502212336 63 255 6.0 16.0 0.00 0.00 0.00 80 1012.1
20260502211829 63 225 7.0 16.0 0.00 0.00 0.00 80 1012.1
20260502211322 62 274 7.0 14.0 0.00 0.00 0.00 80 1012.1
20260502210815 63 237 6.0 14.0 0.00 0.00 0.00 80 1012.1
20260502205800 63 274 7.0 15.0 0.00 0.00 0.00 79 1012.4
20260502205253 64 263 9.0 14.0 0.00 0.00 0.00 77 1012.4
20260502204746 64 218 7.0 16.0 0.00 0.00 0.00 76 1012.4
20260502204239 65 239 10.0 16.0 0.00 0.00 0.00 76 1012.4
20260502203224 65 241 9.0 11.0 0.00 0.00 0.00 76 1012.4
20260502202209 66 226 9.0 10.0 0.00 0.00 0.00 74 1012.4
20260502201702 65 243 6.0 10.0 0.00 0.00 0.00 75 1012.4
20260502201155 65 227 5.0 10.0 0.00 0.00 0.00 76 1012.4
20260502200648 65 304 5.0 10.0 0.00 0.00 0.00 76 1012.4
20260502200141 64 289 1.0 10.0 0.00 0.00 0.00 78 1012.4
20260502195633 64 235 7.0 10.0 0.00 0.00 0.00 79 1012.4
20260502195126 64 247 9.0 13.0 0.00 0.00 0.00 77 1012.4
20260502194618 64 237 9.0 13.0 0.00 0.00 0.00 77 1012.8
20260502194111 64 237 6.0 9.0 0.00 0.00 0.00 79 1012.8
20260502193604 63 212 7.0 10.0 0.00 0.00 0.00 79 1012.8
20260502193057 64 263 7.0 10.0 0.00 0.00 0.00 79 1013.1
20260502192550 64 282 7.0 10.0 0.00 0.00 0.00 79 1012.8
20260502192041 64 252 4.0 10.0 0.00 0.00 0.00 79 1013.1
20260502191534 64 242 6.0 9.0 0.00 0.00 0.00 79 1013.1
20260502191027 64 279 6.0 9.0 0.00 0.00 0.00 79 1013.1
20260502190520 64 245 5.0 13.0 0.00 0.00 0.00 79 1013.1
20260502190012 63 260 4.0 13.0 0.00 0.00 0.00 80 1013.4
20260502185505 63 254 8.0 11.0 0.00 0.00 0.00 79 1013.4
20260502184451 65 247 5.0 9.0 0.00 0.00 0.00 77 1013.8
20260502183437 64 232 1.0 4.0 0.00 0.00 0.00 77 1013.4
20260502182928 64 126 1.0 3.0 0.00 0.00 0.00 78 1013.8
20260502181914 63 164 3.0 6.0 0.00 0.00 0.00 79 1013.4
20260502181406 63 152 3.0 6.0 0.00 0.00 0.00 80 1013.4
20260502180859 63 96 4.0 6.0 0.00 0.00 0.00 80 1013.4
20260502170224 61 6 2.0 3.0 0.00 0.00 0.00 85 1014.1
20260502164156 60 273 0.0 2.0 0.00 0.00 0.00 87 1014.1
20260502163649 59 295 0.0 4.0 0.00 0.00 0.00 88 1014.1
20260502163141 59 270 1.0 4.0 0.00 0.00 0.00 88 1014.1
20260502162127 59 169 2.0 4.0 0.00 0.00 0.00 88 1014.1
20260502161112 59 193 4.0 6.0 0.00 0.00 0.00 89 1014.1
20260502160604 59 310 1.0 7.0 0.00 0.00 0.00 89 1014.1
20260502152000 58 341 0.0 6.0 0.00 0.00 0.00 90 1013.8
20260502151452 58 144 0.0 6.0 0.00 0.00 0.00 91 1013.8
20260502150945 58 35 4.0 7.0 0.00 0.00 0.00 91 1013.4
20260502150438 58 104 3.0 7.0 0.00 0.00 0.00 91 1013.4
20260502130650 57 190 0.0 2.0 0.00 0.00 0.00 93 1012.8
20260502130143 57 188 1.0 2.0 0.00 0.00 0.00 93 1012.8
20260502123606 57 241 1.0 3.0 0.00 0.00 0.00 93 1012.8
20260502123059 57 270 0.0 4.0 0.00 0.00 0.00 93 1012.8
20260502122552 57 202 2.0 4.0 0.00 0.00 0.00 93 1012.8
20260502122044 57 211 3.0 4.0 0.00 0.00 0.00 93 1012.8
20260502121537 57 236 3.0 6.0 0.00 0.00 0.00 93 1012.4
20260502121030 57 221 4.0 6.0 0.00 0.00 0.00 93 1012.4
20260502120523 57 278 1.0 7.0 0.00 0.00 0.00 93 1012.4
20260502115509 57 231 5.0 6.0 0.00 0.00 0.00 93 1012.8
20260502115001 57 245 2.0 6.0 0.00 0.00 0.00 92 1012.4
20260502114454 58 232 4.0 6.0 0.00 0.00 0.00 93 1012.4
20260502113947 58 184 2.0 6.0 0.00 0.00 0.00 92 1012.8
20260502113439 58 213 5.0 6.0 0.00 0.00 0.00 92 1012.4
20260502112932 58 225 2.0 3.0 0.00 0.00 0.00 92 1012.4
20260502112426 58 233 2.0 4.0 0.00 0.00 0.00 92 1012.4
20260502111918 58 240 2.0 4.0 0.00 0.00 0.00 92 1012.4
20260502111410 58 261 2.0 2.0 0.00 0.00 0.00 92 1012.4
20260502110903 57 270 1.0 2.0 0.00 0.00 0.00 92 1012.4
20260502110356 57 259 1.0 3.0 0.00 0.00 0.00 92 1012.4
20260502105849 57 282 0.0 3.0 0.00 0.00 0.00 92 1012.4
20260502105341 58 241 2.0 3.0 0.00 0.00 0.00 92 1012.4
20260502104834 58 228 2.0 4.0 0.00 0.00 0.00 92 1012.1
20260502104327 58 186 2.0 4.0 0.00 0.00 0.00 92 1012.4
20260502103820 58 277 1.0 2.0 0.00 0.00 0.00 92 1012.1
20260502102804 58 261 0.0 3.0 0.00 0.00 0.00 92 1012.4
20260502102258 58 248 0.0 3.0 0.00 0.00 0.00 92 1012.4
20260502101243 57 225 3.0 4.0 0.00 0.00 0.00 92 1012.1
20260502100736 57 273 1.0 4.0 0.00 0.00 0.00 92 1012.1
20260502100229 57 275 1.0 4.0 0.00 0.00 0.00 92 1012.1
20260502091116 58 276 2.0 3.0 0.00 0.00 0.00 90 1012.4
20260502090609 58 279 2.0 2.0 0.00 0.00 0.00 90 1012.4
20260502071330 58 235 1.0 3.0 0.00 0.00 0.00 88 1013.1
20260502070822 58 239 1.0 3.0 0.00 0.00 0.00 88 1013.1
20260502070315 59 225 2.0 3.0 0.00 0.00 0.00 88 1013.4
20260502064753 59 244 1.0 3.0 0.00 0.00 0.00 87 1013.4
20260502064247 59 198 3.0 3.0 0.00 0.00 0.00 87 1013.4
20260502063738 59 186 3.0 4.0 0.00 0.00 0.00 87 1013.4
20260502063231 59 155 3.0 4.0 0.00 0.00 0.00 87 1013.1
20260502062724 59 284 1.0 2.0 0.00 0.00 0.00 87 1013.1
20260502061202 59 96 1.0 4.0 0.00 0.00 0.00 87 1012.8
20260502060655 59 14 1.0 6.0 0.00 0.00 0.00 87 1012.8
20260502055641 59 339 0.0 4.0 0.00 0.00 0.00 87 1013.1
20260502055134 59 83 2.0 3.0 0.00 0.00 0.00 87 1013.1
20260502054626 60 160 1.0 3.0 0.00 0.00 0.00 87 1012.8
20260502054118 59 57 1.0 3.0 0.00 0.00 0.00 87 1012.8
20260502053104 59 142 2.0 3.0 0.00 0.00 0.00 88 1013.1
20260502052557 59 234 1.0 4.0 0.00 0.00 0.00 88 1013.1
20260502052050 59 199 1.0 6.0 0.00 0.00 0.00 88 1013.1
20260502051035 59 108 1.0 3.0 0.00 0.00 0.00 88 1012.8
20260502050528 59 287 0.0 3.0 0.00 0.00 0.00 88 1013.1
20260502050020 59 264 0.0 3.0 0.00 0.00 0.00 88 1012.8
20260502045513 59 200 2.0 3.0 0.00 0.00 0.00 88 1012.8
20260502045006 59 344 0.0 2.0 0.00 0.00 0.00 88 1012.8
20260502044500 59 188 0.0 2.0 0.00 0.00 0.00 88 1012.8
20260502043951 59 283 0.0 2.0 0.00 0.00 0.00 88 1012.8
20260502043444 59 345 1.0 2.0 0.00 0.00 0.00 88 1012.4
20260502042937 59 184 1.0 3.0 0.00 0.00 0.00 89 1012.4
20260502042430 59 231 1.0 3.0 0.00 0.00 0.00 89 1012.4
20260502041923 59 261 0.0 3.0 0.00 0.00 0.00 89 1012.4
20260502041415 59 207 2.0 3.0 0.00 0.00 0.00 89 1012.4
20260502040908 59 221 2.0 3.0 0.00 0.00 0.00 89 1012.4
20260502040401 59 187 2.0 4.0 0.00 0.00 0.00 89 1012.1
20260502035854 59 199 2.0 4.0 0.00 0.00 0.00 89 1012.1
20260502035346 59 253 2.0 3.0 0.00 0.00 0.00 89 1012.1
20260502034839 59 210 2.0 3.0 0.00 0.00 0.00 89 1012.1
20260502034332 59 187 2.0 3.0 0.00 0.00 0.00 89 1011.8
20260502033825 59 185 2.0 3.0 0.00 0.00 0.00 89 1011.8
20260502033317 59 237 1.0 3.0 0.00 0.00 0.00 89 1011.8
20260502032809 59 212 2.0 6.0 0.00 0.00 0.00 89 1011.4
20260502032305 59 258 2.0 6.0 0.00 0.00 0.00 88 1011.4
20260502031755 59 244 3.0 7.0 0.00 0.00 0.00 88 1011.4
20260502031248 60 231 3.0 8.0 0.00 0.00 0.00 88 1011.4
20260502030740 60 239 4.0 8.0 0.00 0.00 0.00 87 1011.4
20260502030233 60 209 2.0 6.0 0.00 0.00 0.00 87 1011.4
20260502025726 60 209 2.0 8.0 0.00 0.00 0.00 87 1011.4
20260502025219 60 278 4.0 9.0 0.00 0.00 0.00 86 1011.1
20260502024204 60 246 6.0 11.0 0.00 0.00 0.00 85 1011.4
20260502023657 60 253 4.0 9.0 0.00 0.00 0.00 85 1011.4
20260502023150 61 253 7.0 10.0 0.00 0.00 0.00 84 1011.4
20260502022643 61 245 7.0 10.0 0.00 0.00 0.00 84 1011.4
20260502022135 61 275 8.0 9.0 0.00 0.00 0.00 83 1011.4
20260502021628 61 233 4.0 8.0 0.00 0.00 0.00 83 1011.1
20260502021121 61 252 4.0 10.0 0.00 0.00 0.00 83 1011.1
20260502020106 62 268 3.0 10.0 0.00 0.00 0.00 83 1011.1
20260502015558 62 224 7.0 11.0 0.00 0.00 0.00 82 1011.1
20260502015051 62 264 5.0 14.0 0.00 0.00 0.00 83 1011.1
20260502014544 62 271 3.0 14.0 0.00 0.00 0.00 82 1011.1
20260502014037 62 216 5.0 14.0 0.00 0.00 0.00 81 1011.1
20260502013529 62 251 6.0 14.0 0.00 0.00 0.00 81 1010.7
20260502013022 63 211 8.0 13.0 0.00 0.00 0.00 80 1011.1
20260502012515 63 241 4.0 13.0 0.00 0.00 0.00 79 1011.1
20260502012008 63 210 11.0 13.0 0.00 0.00 0.00 79 1011.1
20260502011501 63 207 6.0 11.0 0.00 0.00 0.00 79 1011.1
20260502010953 63 241 3.0 14.0 0.00 0.00 0.00 79 1011.1
20260502010446 63 228 7.0 14.0 0.00 0.00 0.00 78 1011.1
20260502005938 64 239 11.0 14.0 0.00 0.00 0.00 76 1011.1
20260502004417 64 230 12.0 17.0 0.00 0.00 0.00 76 1011.1
20260502003909 64 218 9.0 17.0 0.00 0.00 0.00 77 1011.1
20260502003402 64 255 8.0 16.0 0.00 0.00 0.00 76 1010.7
20260502002855 64 231 13.0 16.0 0.00 0.00 0.00 75 1011.1
20260502002347 65 229 9.0 16.0 0.00 0.00 0.00 74 1011.1
20260502001841 65 237 8.0 16.0 0.00 0.00 0.00 74 1011.1
20260502001333 64 236 7.0 14.0 0.00 0.00 0.00 75 1010.7
20260502000825 65 241 9.0 16.0 0.00 0.00 0.00 74 1011.1
20260501235812 66 281 5.0 17.0 0.00 0.00 0.00 73 1011.1
20260501235305 65 243 9.0 17.0 0.00 0.00 0.00 74 1011.1
20260501234756 66 212 12.0 17.0 0.00 0.00 0.00 72 1011.1
20260501234249 65 181 9.0 16.0 0.00 0.00 0.00 73 1011.1
20260501233742 65 201 12.0 17.0 0.00 0.00 0.00 74 1011.1
20260501233234 65 263 11.0 17.0 0.00 0.00 0.00 73 1011.1
20260501232727 66 225 11.0 16.0 0.00 0.00 0.00 72 1011.1
20260501232220 65 197 9.0 18.0 0.00 0.00 0.00 74 1011.1
20260501231713 65 225 12.0 18.0 0.00 0.00 0.00 75 1011.4